Regional Weather Roundup
Issued by NWS

Home | Current Version | Previous Version | Graphics & Text | Print | Product List | Glossary On
Versions: 1 2 3 4 5 6 7 8 9 10 11 12 13 14 15 16 17 18 19 20 21 22 23 24 25 26 27 28 29 30 31 32 33 34 35 36 37 38 39 40 41 42 43 44 45 46 47 48 49 50
146
ASUS43 KIND 202209
RWRIN

WEATHER ROUNDUP FOR INDIANA
NATIONAL WEATHER SERVICE INDIANAPOLIS IN
600 PM EDT SUN AUG 20 2017

NOTE: "FAIR" INDICATES FEW OR NO CLOUDS BELOW 12,000 FEET WITH NO
SIGNIFICANT WEATHER AND/OR OBSTRUCTIONS TO VISIBILITY.

* - STATION DOES NOT REPORT WEATHER SUCH AS PRECIPITATION OR FOG.

+ - STATION NOT QUALITY CONTROLLED BY THE NATIONAL WEATHER SERVICE.
    USE DATA WITH CAUTION...ESPECIALLY DEWPOINT AND RELATIVE
    HUMIDITY OBSERVATIONS.

INZ001>003-010>013-019-020-202300-
NORTHWEST INDIANA

CITY           SKY/WX    TMP DP  RH WIND       PRES   REMARKS
GARY /AIRPORT/ CLOUDY    86  66  51 S5        30.02F
KNOX *+        CLOUDY    81  70  69 S3        30.04R
LA PORTE +     CLOUDY    82  68  61 S3        30.04S
MICHIGAN CITY+ CLOUDY    82  64  54 S3        30.03F
MONTICELLO +   SUNNY     87  64  45 CALM      30.03S
RENSSELAER +   CLOUDY    84  59  42 CALM      30.03S
VALPARAISO     CLOUDY    84  71  65 S5        30.04S

$$

LMZ046-743>745-202300-
SOUTHERN LAKE MICHIGAN

STATION/POSITION TIME  TEMP    WIND        PRES    WAVE
                       AIR SEA DIR/SP/G            HT
                 (UTC) (F)     (DEG/KT/KT) (MB)    (FT)
BURNS HARBOR     2140   84     190/  6/ 10 1016.6F
MICHIGAN CITY    2140   83     170/  6/  8   N/A
5NW MICH CITY    2200   80 77  170/  4/  6   N/A     1

$$

INZ004-005-014>016-021>024-202300-
NORTH CENTRAL INDIANA

CITY           SKY/WX    TMP DP  RH WIND       PRES   REMARKS
GOSHEN         PTSUNNY   82  63  52 SW5       30.05S
LOGANSPORT +   SUNNY     84  63  48 W3        30.06S
PERU/GRISSOM   SUNNY     86  64  48 W5        30.05R
ROCHESTER +    MOSUNNY  N/A N/A N/A SW6       30.06S
SOUTH BEND     LGT RAIN  83  64  52 SW7       30.05S
WARSAW +       MOSUNNY   81  63  54 W5        30.06S

$$

INZ006>009-017-018-025>027-202300-
NORTHEAST INDIANA

CITY           SKY/WX    TMP DP  RH WIND       PRES   REMARKS
AUBURN +       MOSUNNY   82  64  54 NW3       30.06S
FORT WAYNE     MOSUNNY   85  62  46 W10       30.05S
HUNTINGTON +   SUNNY     85  62  46 W6        30.05S

$$

INZ028-029-035-036-043>045-051>053-202300-
WEST CENTRAL INDIANA

CITY           SKY/WX    TMP DP  RH WIND       PRES   REMARKS
GREENCASTLE +  SUNNY     88  64  45 S5        30.05S
LAFAYETTE      SUNNY     87  66  49 SW5       30.02S
TERRE HAUTE    SUNNY     91  66  43 W3        30.02S

$$

INZ030>032-037>040-046>048-054>057-064-065-202300-
CENTRAL INDIANA

CITY           SKY/WX    TMP DP  RH WIND       PRES   REMARKS
CP ATTERBURY + MOSUNNY   88  64  45 CALM      30.05S
COLUMBUS       MOSUNNY   88  55  33 SW8       30.04S
FRANKFORT +    CLOUDY    88  68  51 CALM      30.07S
GREENWOOD *+   MOSUNNY   85  64  49 SW3       30.05S
INDIANAPOLIS   PTSUNNY   89  65  44 S9        30.03S
-EAGLE CREEK   SUNNY     89  60  37 W3        30.03S
KOKOMO +       SUNNY     87  65  47 NW5       30.07R
MARION +       SUNNY     82  64  54 W6        30.07R
MT COMFORT *+  MOSUNNY   88  64  45 S3        30.06S
SHELBYVILLE    MOSUNNY   86  67  52 SW7       30.05R
ZIONSVILLE +   MOSUNNY   85  64  48 NW5       30.06S

$$

INZ033-034-041-042-049-050-058-059-202300-
EAST CENTRAL INDIANA

CITY           SKY/WX    TMP DP  RH WIND       PRES   REMARKS
MUNCIE         MOSUNNY   87  62  43 NW9       30.06R
RICHMOND +     SUNNY     82  64  54 CALM      30.08S

$$

INZ060-061-067>069-081>083-085>088-202300-
SOUTHWEST INDIANA

CITY           SKY/WX    TMP DP  RH WIND       PRES   REMARKS
EVANSVILLE     CLOUDY    91  69  48 S6        30.03R HX  96
HUNTINGBURG +  SUNNY     89  72  56 S8        30.04R HX  96
WASHINGTON +   CLOUDY    90  65  43 MISG      30.02R

$$

INZ062-063-066-070>080-084-089>092-202300-
SOUTH CENTRAL AND SOUTHEAST INDIANA

CITY           SKY/WX    TMP DP  RH WIND       PRES   REMARKS
BEDFORD +      MOSUNNY   86  68  54 CALM      30.04R
BLOOMINGTON    CLOUDY    91  65  41 W8        30.04S
MADISON *+     SUNNY     90  63  40 SE7       30.07F
NORTH VERNON + MOSUNNY   84  68  58 CALM      30.06S
SEYMOUR +      PTSUNNY   91  64  40 SE3       30.03S

$$





USA.gov is the U.S. government's official web portal to all federal, state and local government web resources and services.